Date String (YYYY-MM-DD hh:mm:ss) UTC,Instrument flags,absolute air pressure of the measurement (hPa),sample flow rate (lpm),inlet stack bypass flow (lpm),air temperature of the measurement (°C),ambient temperature measured by the external sensor (°C),aerosol sample conditioner tube jacket temperature (°C),OPC LED temperature (°C),internal box temperature (°C),relative humidity of the measurement (%),span deviation,mass concentration of particles derived from Lorenz-Mie calculation of OPC scattering (μg/m³),mass concentration of particles derived from Lorenz-Mie calculation of OPC scattering (μg/m³),mass concentration of particles derived from Lorenz-Mie calculation of OPC scattering (μg/m³)
DateTimeUTC,F1_M11,P_M11,Q1_M11,Q2_M11,T1_M11,T2_M11,T3_M11,T4_M11,T5_M11,U1_M11,ZSPAN_M11,X2_M11,X0_M11,X1_M11
2024-05-30 06:00:00,SystemResetWarning,0826.6,5.00,000.00,030.4,029.6,000.0,038.7,032.1,011.7,0000.0,0003.04,0007.32,0001.93
2024-05-30 06:01:00,SystemResetWarning,0826.6,5.00,000.00,030.4,029.6,000.0,038.7,032.1,011.7,0000.0,0003.08,0007.62,0001.94
2024-05-30 06:02:00,SystemResetWarning,0826.6,5.01,000.00,030.4,029.7,000.0,038.7,032.2,011.7,0000.0,0003.10,0008.29,0001.95
2024-05-30 06:03:00,SystemResetWarning,0826.6,5.00,000.00,030.4,029.7,000.0,038.7,032.2,011.7,0000.0,0003.08,0008.29,0001.95
2024-05-30 06:04:00,SystemResetWarning,0826.5,5.00,000.00,030.5,029.8,000.0,038.8,032.2,011.6,0000.0,0003.07,0007.71,0001.96
2024-05-30 06:05:00,SystemResetWarning,0826.6,4.99,000.00,030.5,029.8,000.0,038.8,032.2,011.6,0000.0,0002.99,0007.48,0001.95
2024-05-30 06:06:00,SystemResetWarning,0826.6,5.00,000.00,030.5,029.8,000.0,038.8,032.2,011.5,0000.0,0003.00,0007.45,0001.95
2024-05-30 06:07:00,SystemResetWarning,0826.6,5.00,000.00,030.5,029.8,000.0,038.8,032.3,011.6,0000.0,0003.01,0007.47,0001.96
2024-05-30 06:08:00,SystemResetWarning,0826.6,5.01,000.00,030.6,029.9,000.0,038.8,032.3,011.6,0000.0,0002.99,0008.05,0001.97
2024-05-30 06:09:00,SystemResetWarning,0826.6,5.01,000.00,030.6,029.9,000.0,038.8,032.3,011.5,0000.0,0003.05,0008.11,0001.97
2024-05-30 06:10:00,SystemResetWarning,0826.6,4.99,000.00,030.6,029.9,000.0,038.8,032.3,011.6,0000.0,0003.10,0008.50,0001.98
2024-05-30 06:11:00,SystemResetWarning,0826.6,4.99,000.00,030.6,029.9,000.0,038.8,032.4,011.6,0000.0,0003.11,0009.51,0001.98
2024-05-30 06:12:00,SystemResetWarning,0826.6,5.00,000.00,030.7,030.0,000.0,038.9,032.4,011.8,0000.0,0003.11,0010.11,0001.97
2024-05-30 06:13:00,SystemResetWarning,0826.6,5.01,000.00,030.7,030.0,000.0,038.9,032.4,011.6,0000.0,0003.11,0009.23,0001.97
2024-05-30 06:14:00,SystemResetWarning,0826.6,5.00,000.00,030.7,030.0,000.0,038.9,032.4,011.7,0000.0,0003.15,0009.22,0001.97
2024-05-30 06:15:00,SystemResetWarning,0826.6,5.01,000.00,030.7,030.0,000.0,038.9,032.5,011.8,0000.0,0003.16,0009.08,0001.97
2024-05-30 06:16:00,SystemResetWarning,0826.6,5.00,000.00,030.7,030.1,000.0,038.9,032.5,011.9,0000.0,0003.17,0009.21,0001.97
2024-05-30 06:17:00,SystemResetWarning,0826.6,4.99,000.00,030.8,030.1,000.0,039.0,032.5,012.0,0000.0,0003.19,0009.35,0001.97
2024-05-30 06:18:00,SystemResetWarning,0826.6,4.99,000.00,030.8,030.1,000.0,039.0,032.5,011.9,0000.0,0003.22,0009.42,0001.97
2024-05-30 06:19:00,SystemResetWarning,0826.6,5.00,000.00,030.8,030.1,000.0,039.0,032.5,011.9,0000.0,0003.19,0009.28,0001.95
2024-05-30 06:20:00,SystemResetWarning,0826.7,5.01,000.00,030.8,030.1,000.0,039.0,032.5,011.9,0000.0,0003.16,0009.16,0001.96
2024-05-30 06:21:00,SystemResetWarning,0826.8,5.00,000.00,030.8,030.1,000.0,039.0,032.5,011.9,0000.0,0003.16,0008.96,0001.94
2024-05-30 06:22:00,SystemResetWarning,0826.8,4.99,000.00,030.8,030.1,000.0,039.0,032.6,011.8,0000.0,0003.14,0008.13,0001.93
2024-05-30 06:23:00,SystemResetWarning,0826.8,4.99,000.00,030.9,030.1,000.0,039.1,032.6,011.8,0000.0,0003.13,0007.54,0001.93
2024-05-30 06:24:00,SystemResetWarning,0826.8,4.99,000.00,030.9,030.1,000.0,039.1,032.6,011.8,0000.0,0003.17,0007.65,0001.94
2024-05-30 06:25:00,SystemResetWarning,0826.8,5.00,000.00,030.9,030.1,000.0,039.1,032.6,011.7,0000.0,0003.20,0007.68,0001.95
2024-05-30 06:26:00,SystemResetWarning,0826.8,5.00,000.00,030.9,030.2,000.0,039.1,032.6,011.8,0000.0,0003.22,0007.79,0001.95
2024-05-30 06:27:00,SystemResetWarning,0826.8,5.01,000.00,030.9,030.2,000.0,039.1,032.6,012.0,0000.0,0003.21,0007.77,0001.95
2024-05-30 06:28:00,SystemResetWarning,0826.8,5.01,000.00,030.9,030.2,000.0,039.2,032.6,011.8,0000.0,0003.19,0007.79,0001.95
2024-05-30 06:29:00,SystemResetWarning,0826.8,5.00,000.00,030.9,030.2,000.0,039.2,032.6,012.1,0000.0,0003.21,0007.84,0001.96
2024-05-30 06:30:00,SystemResetWarning,0826.8,4.99,000.00,030.9,030.2,000.0,039.2,032.6,011.8,0000.0,0003.25,0007.59,0001.96
2024-05-30 06:31:00,SystemResetWarning,0826.8,4.99,000.00,030.9,030.2,000.0,039.2,032.6,011.9,0000.0,0003.26,0007.60,0001.97
2024-05-30 06:32:00,SystemResetWarning,0826.8,5.01,000.00,030.9,030.2,000.0,039.2,032.6,011.8,0000.0,0003.27,0007.74,0001.97
2024-05-30 06:33:00,SystemResetWarning,0826.8,5.01,000.00,030.9,030.2,000.0,039.2,032.6,012.1,0000.0,0003.29,0007.51,0001.98
2024-05-30 06:34:00,SystemResetWarning,0826.8,5.00,000.00,030.9,030.2,000.0,039.2,032.6,011.9,0000.0,0003.28,0007.40,0001.98
2024-05-30 06:35:00,SystemResetWarning,0826.8,4.99,000.00,031.0,030.2,000.0,039.2,032.7,011.8,0000.0,0003.20,0007.02,0001.97
2024-05-30 06:36:00,SystemResetWarning,0826.8,4.99,000.00,031.0,030.2,000.0,039.2,032.7,011.8,0000.0,0003.12,0006.69,0001.95
2024-05-30 06:37:00,SystemResetWarning,0826.8,4.99,000.00,031.0,030.2,000.0,039.2,032.7,011.8,0000.0,0003.11,0006.51,0001.95
2024-05-30 06:38:00,SystemResetWarning,0826.8,5.00,000.00,031.0,030.2,000.0,039.3,032.7,011.8,0000.0,0003.11,0007.30,0001.95
2024-05-30 06:39:00,SystemResetWarning,0826.8,5.00,000.00,031.0,030.3,000.0,039.3,032.7,011.7,0000.0,0003.11,0007.67,0001.94
2024-05-30 06:40:00,SystemResetWarning,0826.8,5.00,000.00,031.0,030.3,000.0,039.3,032.7,011.7,0000.0,0003.05,0007.73,0001.93
2024-05-30 06:41:00,SystemResetWarning,0826.9,5.00,000.00,031.0,030.3,000.0,039.3,032.7,011.6,0000.0,0003.04,0007.68,0001.93
2024-05-30 06:42:00,SystemResetWarning,0826.9,5.01,000.00,031.0,030.3,000.0,039.3,032.8,011.6,0000.0,0003.02,0007.56,0001.93
2024-05-30 06:43:00,SystemResetWarning,0826.9,5.00,000.00,031.1,030.3,000.0,039.3,032.8,011.7,0000.0,0002.98,0007.34,0001.92
2024-05-30 06:44:00,SystemResetWarning,0827.0,5.00,000.00,031.1,030.3,000.0,039.3,032.8,011.6,0000.0,0002.95,0007.21,0001.92
2024-05-30 06:45:00,SystemResetWarning,0827.1,5.00,000.00,031.1,030.3,000.0,039.3,032.8,011.8,0000.0,0002.97,0008.21,0001.92
2024-05-30 06:46:00,SystemResetWarning,0827.1,5.00,000.00,031.1,030.3,000.0,039.3,032.8,012.0,0000.0,0003.01,0008.34,0001.93
2024-05-30 06:47:00,SystemResetWarning,0827.1,5.00,000.00,031.1,030.3,000.0,039.4,032.8,012.2,0000.0,0003.05,0008.42,0001.95
2024-05-30 06:48:00,SystemResetWarning,0827.2,5.00,000.00,031.1,030.3,000.0,039.4,032.8,012.5,0000.0,0003.01,0008.91,0001.94
2024-05-30 06:49:00,SystemResetWarning,0827.2,5.00,000.00,031.1,030.3,000.0,039.4,032.8,012.8,0000.0,0003.01,0008.45,0001.94
2024-05-30 06:50:00,SystemResetWarning,0827.2,5.01,000.00,031.1,030.3,000.0,039.4,032.8,012.8,0000.0,0003.02,0008.15,0001.95
2024-05-30 06:51:00,SystemResetWarning,0827.2,4.99,000.00,031.1,030.3,000.0,039.4,032.8,012.9,0000.0,0003.06,0008.07,0001.96
2024-05-30 06:52:00,SystemResetWarning,0827.3,4.99,000.00,031.1,030.3,000.0,039.4,032.8,012.9,0000.0,0003.08,0008.37,0001.96
2024-05-30 06:53:00,SystemResetWarning,0827.4,5.01,000.00,031.1,030.3,000.0,039.4,032.8,012.9,0000.0,0003.09,0008.55,0001.97
2024-05-30 06:54:00,SystemResetWarning,0827.4,5.00,000.00,031.1,030.3,000.0,039.4,032.8,013.0,0000.0,0003.12,0008.66,0001.97
2024-05-30 06:55:00,SystemResetWarning,0827.4,5.00,000.00,031.1,030.3,000.0,039.4,032.8,013.3,0000.0,0003.12,0008.69,0001.98
2024-05-30 06:56:00,SystemResetWarning,0827.3,5.00,000.00,031.1,030.3,000.0,039.4,032.8,013.4,0000.0,0003.13,0008.41,0001.99
2024-05-30 06:57:00,SystemResetWarning,0827.4,5.00,000.00,031.1,030.3,000.0,039.4,032.8,013.3,0000.0,0003.22,0008.45,0002.01
2024-05-30 06:58:00,SystemResetWarning,0827.3,5.01,000.00,031.1,030.3,000.0,039.4,032.8,013.3,0000.0,0003.29,0008.90,0002.03
2024-05-30 06:59:00,SystemResetWarning,0827.4,5.01,000.00,031.1,030.3,000.0,039.4,032.8,013.5,0000.0,0003.35,0009.44,0002.06
